[[{"header":{"parameterUnit":"m.s-1","parameterCategory":1,"la1":30.2991,"la2":30.254,"lo1":-89.0895,"lo2":-89.0444,"dy":0.0017,"dx":0.0017,"nx":28,"ny":28,"refTime":"2024-08-29T03:00:00:Z","depth":0,"parameterNumber":2,"parameterNumberName":"U-component_of_WINDS"},"data":[0,0,0,0,0,0,0,0,0,0,0,0,0,0,0,0,0,0,0,0,0,0,0,0,0,0,0,0,0,0,0,0,0,0,0,0,0,0,0,0,0,0,0,0,0,0,0,0,0,0,0,0,0,0,0,0,0,0,-4.3322,-4.3322,0,-4.3303,-4.3303,-4.3303,-4.322,-4.3218,-4.3216,-4.3214,-4.3197,-4.3198,-4.32,0,0,0,0,0,0,0,0,0,0,0,0,0,-4.3289,-4.329,-4.3322,-4.3322,-4.3322,-4.3303,-4.3303,-4.3303,-4.322,-4.3218,-4.3215,-4.3213,-4.3197,-4.3198,-4.32,0,0,0,0,0,0,0,0,0,0,0,0,0,-4.329,-4.3291,-4.3322,-4.3278,-4.3274,-4.3303,-4.3303,-4.3303,-4.3221,-4.3218,-4.3215,-4.3212,-4.3196,-4.3198,-4.32,-4.3271,0,0,-4.3206,-4.3207,0,0,0,0,0,0,0,0,-4.329,-4.3292,-4.3285,-4.3281,-4.3277,-4.3261,-4.3285,-4.3292,-4.3221,-4.3241,-4.3214,-4.3211,-4.3221,-4.3221,-4.3223,-4.327,-4.3269,-4.3206,-4.3208,-4.3208,-4.3209,0,0,0,0,0,0,0,-4.329,-4.3292,-4.3315,-4.3285,-4.328,-4.326,-4.3257,-4.3286,-4.3248,-4.3239,-4.3233,-4.3232,-4.3218,-4.3222,-4.3222,-4.3269,-4.3206,-4.3208,-4.3209,-4.321,-4.3372,-4.3375,0,0,0,0,0,0,-4.3296,-4.3293,-4.3315,-4.3314,-4.3276,-4.3263,-4.326,-4.3269,-4.3247,-4.3241,-4.3234,-4.3228,-4.322,-4.322,-4.3222,-4.3302,-4.3208,-4.321,-4.3212,-4.3369,-4.3373,-4.3376,0,0,0,0,0,0,-4.3296,-4.3299,-4.3316,-4.3302,-4.3302,-4.3267,-4.3278,-4.327,-4.3274,-4.3243,-4.3236,-4.3245,-4.3217,-4.3219,-4.3259,-4.33,-4.3211,-4.3213,-4.3366,-4.337,-4.3375,-4.3464,0,0,0,0,0,0,-4.3295,-4.3299,-4.3325,-4.3303,-4.3304,-4.3353,-4.3281,-4.3272,-4.3277,-4.3269,-4.3251,-4.3246,-4.3215,-4.3256,-4.3261,-4.3301,-4.3215,-4.3362,-4.3368,-4.3373,-4.3457,-4.3471,-4.3483,0,0,0,0,0,-4.3294,-4.3352,-4.3327,-4.333,-4.3335,-4.3356,-4.3356,-4.3319,-4.3281,-4.3307,-4.3287,-4.3246,-4.3296,-4.3261,-4.3266,-4.3307,-4.3359,-4.3366,-4.3373,-4.3451,-4.3468,-4.3482,0,0,0,0,0,0,-4.3381,-4.3348,-4.332,-4.3372,-4.3367,-4.3342,-4.3373,-4.3338,-4.3345,-4.3337,-4.3291,-4.3288,-4.3335,-4.3325,-4.3288,-4.3374,-4.332,-4.3328,-4.3378,-4.3394,-4.3407,-4.3407,-4.3216,0,0,0,0,0,-4.3406,-4.3425,-4.3396,-4.3444,-4.3443,-4.3409,-4.3417,-4.3389,-4.3382,-4.338,-4.3363,-4.3359,-4.3373,-4.3384,-4.3395,-4.3456,-4.3451,-4.3487,-4.35,-4.3511,-4.3518,-4.3548,-4.3563,-4.3399,-4.3399,-4.3399,0,0,-4.3458,-4.3442,-4.3457,-4.3461,-4.3454,-4.3475,-4.3408,-4.3433,-4.3448,-4.3384,-4.342,-4.3408,-4.3401,-4.3451,-4.3473,-4.3445,-4.3562,-4.352,-4.3528,-4.3529,-4.3557,-4.3572,-4.3586,-4.3404,-4.3403,-4.3402,0,0,-4.3562,-4.3553,-4.3592,-4.3586,-4.3576,-4.3553,-4.3563,-4.3543,-4.3532,-4.3567,-4.3519,-4.3538,-4.3564,-4.356,-4.3561,-4.3666,-4.3628,-4.3671,-4.3738,-4.3768,-4.3781,-4.3792,-4.3827,-4.3841,-4.3679,-4.3679,-4.3679,0,-4.3628,-4.3656,-4.3616,-4.3644,-4.3647,-4.359,-4.3629,-4.3626,-4.3621,-4.3624,-4.3593,-4.3624,-4.3615,-4.3663,-4.3689,-4.3693,-4.3702,-4.3671,-4.3782,-4.3793,-4.3803,-4.3836,-4.385,-4.3684,-4.3684,-4.3683,-4.3683,0,-4.3737,-4.3758,-4.3791,-4.3786,-4.3793,-4.3827,-4.3792,-4.3804,-4.3776,-4.3757,-4.3794,-4.3782,-4.3789,-4.3799,-4.3773,-4.3844,-4.3826,-4.379,-4.3734,-4.3824,-4.3854,-4.3867,-4.3691,-4.369,-4.3688,-4.3687,0,0,-4.3893,-4.3866,-4.3879,-4.3875,-4.3861,-4.3876,-4.3908,-4.3914,-4.3925,-4.3925,-4.3949,-4.3973,-4.3938,-4.394,-4.3913,-4.394,-4.4022,-4.39,-4.3899,-4.3921,-4.4098,-4.4124,-4.4139,-4.3998,-4.4,-4.4002,-4.4098,0,-4.3991,-4.4041,-4.4006,-4.4063,-4.4081,-4.4028,-4.4055,-4.405,-4.4033,-4.4047,-4.4029,-4.4045,-4.4,-4.4,-4.4025,-4.4007,-4.4056,-4.4,-4.4019,-4.4021,-4.402,-4.4155,-4.4183,-4.4273,-4.411,-4.4112,-4.4113,0,-4.4111,-4.4114,-4.4172,-4.4153,-4.416,-4.4185,-4.4187,-4.4202,-4.4195,-4.4181,-4.4183,-4.4149,-4.4179,-4.4127,-4.4167,-4.4129,-4.4136,-4.4129,-4.4131,-4.4129,-4.407,-4.4155,-4.4302,-4.4314,-4.4132,-4.413,-4.4129,0,-4.4217,-4.4236,-4.4272,-4.4272,-4.4251,-4.427,-4.4262,-4.4252,-4.4258,-4.4262,-4.4265,-4.4273,-4.4277,-4.4284,-4.4253,-4.4218,-4.4297,-4.4242,-4.4286,-4.4287,-4.4303,-4.4301,-4.445,-4.4312,-4.4311,-4.4311,-4.4311,0,-4.4328,-4.4365,-4.4319,-4.4342,-4.4382,-4.4342,-4.4383,-4.437,-4.4362,-4.4381,-4.4338,-4.4357,-4.4316,-4.4331,-4.4308,-4.4344,-4.4347,-4.4336,-4.4329,-4.4339,-4.434,-4.434,-4.4332,-4.4315,-4.4314,-4.4313,-4.4313,0,-4.4452,-4.4423,-4.4458,-4.4436,-4.4431,-4.4462,-4.4443,-4.4463,-4.4444,-4.4469,-4.4472,-4.4443,-4.4458,-4.4429,-4.4442,-4.4426,-4.4476,-4.4461,-4.4478,-4.4472,-4.4517,-4.4512,-4.4668,-4.4686,-4.4539,-4.4541,-4.4542,0,-4.4523,-4.455,-4.4531,-4.454,-4.4534,-4.455,-4.4556,-4.4519,-4.4527,-4.4521,-4.4542,-4.4554,-4.4561,-4.4589,-4.4569,-4.4578,-4.4561,-4.4616,-4.4562,-4.4571,-4.4559,-4.4557,-4.4559,-4.4626,-4.4627,-4.4629,-4.463,0,-4.4653,-4.4637,-4.4647,-4.4651,-4.4659,-4.4662,-4.4661,-4.4671,-4.4632,-4.4644,-4.4658,-4.4664,-4.4677,-4.4689,-4.4693,-4.4686,-4.4652,-4.4648,-4.4658,-4.4666,-4.4674,-4.4668,-4.4505,-4.4643,-4.4642,-4.4641,-4.464,-4.464,-4.4751,-4.4772,-4.4761,-4.4773,-4.4769,-4.4769,-4.4786,-4.4769,-4.478,-4.4786,-4.4765,-4.4785,-4.4778,-4.478,-4.4777,-4.4792,-4.4768,-4.4783,-4.4787,-4.479,-4.4796,-4.4674,-4.4793,-4.4793,-4.4793,-4.4792,-4.4792,0,-4.4876,-4.4867,-4.4879,-4.4878,-4.4888,-4.4854,-4.4852,-4.4862,-4.488,-4.4876,-4.4884,-4.4901,-4.4913,-4.4894,-4.4903,-4.4919,-4.4903,-4.4922,-4.4919,-4.4918,-4.4819,-4.4808,-4.4934,-4.4934,-4.4934,-4.4934,-4.4934,-4.4934,-4.4943,-4.4976,-4.4959,-4.499,-4.498,-4.4998,-4.5,-4.5,-4.4996,-4.5017,-4.5026,-4.5013,-4.5003,-4.5011,-4.5021,-4.5015,-4.5019,-4.5044,-4.5032,-4.4939,-4.4925,-4.4912,-4.4901,-4.5045,-4.5046,-4.513,-4.5131,-4.5131]},{"header":{"parameterUnit":"m.s-1","parameterCategory":1,"la1":30.2991,"la2":30.254,"lo1":-89.0895,"lo2":-89.0444,"dy":0.0017,"dx":0.0017,"nx":28,"ny":28,"refTime":"2024-08-29T03:00:00:Z","depth":0,"parameterNumber":3,"parameterNumberName":"V-component_of_WINDS"},"data":[0,0,0,0,0,0,0,0,0,0,0,0,0,0,0,0,0,0,0,0,0,0,0,0,0,0,0,0,0,0,0,0,0,0,0,0,0,0,0,0,0,0,0,0,0,0,0,0,0,0,0,0,0,0,0,0,0,0,4.0611,4.0612,0,4.0746,4.0748,4.0749,4.0772,4.0771,4.0769,4.0768,4.0905,4.0909,4.0914,0,0,0,0,0,0,0,0,0,0,0,0,0,4.0368,4.0372,4.0611,4.0612,4.0614,4.0746,4.0748,4.075,4.0772,4.0771,4.0769,4.0768,4.0903,4.0909,4.0915,0,0,0,0,0,0,0,0,0,0,0,0,0,4.0485,4.0374,4.061,4.0641,4.0645,4.0746,4.0748,4.075,4.0772,4.0771,4.0769,4.0767,4.0901,4.0908,4.0915,4.0994,0,0,4.0937,4.094,0,0,0,0,0,0,0,0,4.0479,4.0494,4.0635,4.0639,4.0644,4.074,4.0712,4.0832,4.0773,4.0724,4.0768,4.0766,4.0851,4.0862,4.0892,4.1,4.1006,4.0938,4.0942,4.0945,4.0947,0,0,0,0,0,0,0,4.047,4.0488,4.0664,4.0637,4.0642,4.0647,4.0662,4.0735,4.0796,4.0728,4.073,4.0746,4.0853,4.0885,4.0895,4.1008,4.0937,4.0944,4.0948,4.0951,4.1188,4.119,0,0,0,0,0,0,4.0457,4.0482,4.066,4.0668,4.0555,4.0653,4.0669,4.0711,4.0795,4.0806,4.0747,4.0746,4.0874,4.0887,4.09,4.0999,4.0945,4.0951,4.0956,4.1186,4.1189,4.1191,0,0,0,0,0,0,4.0452,4.0473,4.0654,4.0576,4.0599,4.0659,4.0706,4.0715,4.0746,4.081,4.082,4.0768,4.0873,4.089,4.0971,4.1004,4.0955,4.0961,4.1184,4.1187,4.119,4.1196,0,0,0,0,0,0,4.0445,4.0471,4.0502,4.0576,4.0603,4.0724,4.0708,4.0719,4.0759,4.0759,4.0832,4.0843,4.0873,4.096,4.0978,4.1012,4.0967,4.1181,4.1185,4.1189,4.1193,4.1199,4.1204,0,0,0,0,0,4.0436,4.0498,4.0504,4.0525,4.0644,4.0726,4.0741,4.0775,4.0761,4.0793,4.0833,4.084,4.0996,4.0968,4.0988,4.1026,4.1179,4.1184,4.1188,4.1191,4.1198,4.1203,0,0,0,0,0,0,4.0426,4.0508,4.0516,4.0604,4.0658,4.073,4.0771,4.0782,4.084,4.0838,4.0877,4.0893,4.0972,4.1006,4.0973,4.1106,4.1087,4.1095,4.1081,4.1088,4.1094,4.1085,4.0973,0,0,0,0,0,4.0434,4.0495,4.0563,4.0634,4.0661,4.0711,4.0748,4.0769,4.0827,4.0849,4.0896,4.095,4.1012,4.1051,4.1111,4.1197,4.1213,4.1232,4.1237,4.1242,4.125,4.1298,4.1307,4.1206,4.1206,4.1206,0,0,4.0452,4.0504,4.054,4.0633,4.0678,4.0739,4.073,4.0795,4.0841,4.0859,4.0939,4.0974,4.1038,4.1121,4.116,4.1152,4.1281,4.1247,4.125,4.1256,4.1303,4.1313,4.1321,4.1209,4.1209,4.1208,0,0,4.0515,4.056,4.0625,4.067,4.0737,4.077,4.0785,4.0855,4.088,4.096,4.0975,4.1029,4.1134,4.1179,4.1215,4.1293,4.1302,4.1311,4.134,4.1387,4.1395,4.1402,4.1431,4.1441,4.1319,4.1319,4.1319,0,4.0529,4.0623,4.0657,4.0722,4.0762,4.0781,4.0846,4.0887,4.0971,4.0998,4.0987,4.1119,4.1163,4.1258,4.1277,4.1305,4.1324,4.1305,4.1391,4.1399,4.1406,4.1434,4.1445,4.1319,4.1319,4.1319,4.1319,0,4.0636,4.0701,4.0744,4.0825,4.087,4.0935,4.0978,4.1019,4.1035,4.1069,4.115,4.1203,4.1274,4.1297,4.1314,4.1394,4.1387,4.1383,4.1365,4.1416,4.1443,4.1454,4.1321,4.132,4.132,4.132,0,0,4.07,4.0798,4.0814,4.0851,4.0925,4.0976,4.104,4.111,4.1145,4.1201,4.1256,4.1344,4.134,4.1382,4.1403,4.1443,4.1503,4.1434,4.1436,4.1447,4.1596,4.16,4.1612,4.1508,4.151,4.1512,4.1591,0,4.0775,4.0892,4.0924,4.1023,4.1084,4.1101,4.1157,4.1209,4.1241,4.1296,4.133,4.1393,4.1383,4.1408,4.1448,4.1487,4.1534,4.1481,4.156,4.1563,4.1547,4.1626,4.1632,4.1704,4.1602,4.1603,4.1605,0,4.0878,4.0937,4.1042,4.1109,4.1135,4.1186,4.1252,4.1304,4.1362,4.1382,4.1428,4.1445,4.1512,4.1488,4.1581,4.1545,4.1578,4.1601,4.1605,4.1616,4.1589,4.1641,4.1728,4.1739,4.1622,4.162,4.1619,0,4.0917,4.1021,4.1099,4.1129,4.1208,4.1243,4.1278,4.1334,4.1374,4.1431,4.1457,4.1521,4.1556,4.1605,4.1638,4.1617,4.1728,4.1707,4.1748,4.1747,4.1773,4.1771,4.1868,4.179,4.179,4.179,4.1789,0,4.0998,4.1063,4.1117,4.1165,4.1237,4.1271,4.1342,4.1376,4.1426,4.148,4.1497,4.1547,4.1587,4.1642,4.1668,4.1742,4.1757,4.1775,4.1782,4.1776,4.1774,4.18,4.1797,4.1793,4.1792,4.1791,4.1791,0,4.1055,4.1094,4.118,4.1247,4.1265,4.1316,4.1373,4.142,4.1451,4.1519,4.1537,4.1586,4.1652,4.1689,4.1772,4.1789,4.1871,4.1874,4.1853,4.1856,4.1896,4.1892,4.2015,4.2033,4.194,4.1941,4.1942,0,4.1106,4.1156,4.1229,4.1267,4.1302,4.1362,4.1403,4.1437,4.1479,4.1548,4.1586,4.1652,4.1708,4.1812,4.1855,4.1917,4.1923,4.1962,4.1933,4.1925,4.1926,4.1924,4.193,4.1968,4.1969,4.1969,4.197,0,4.1193,4.121,4.1268,4.1333,4.1382,4.1434,4.1487,4.1516,4.1559,4.1604,4.1672,4.1715,4.1799,4.1865,4.1931,4.1965,4.1975,4.1978,4.1991,4.1987,4.1973,4.1983,4.1869,4.1976,4.1975,4.1975,4.1975,4.1974,4.1251,4.1296,4.1354,4.1419,4.1461,4.1509,4.1557,4.1594,4.1651,4.1723,4.1738,4.181,4.1865,4.1955,4.199,4.2046,4.2039,4.2058,4.2063,4.2068,4.207,4.1961,4.2058,4.2057,4.2057,4.2057,4.2057,0,4.1341,4.1378,4.1437,4.151,4.156,4.1563,4.1621,4.1663,4.1726,4.1777,4.1831,4.1908,4.1972,4.2018,4.2083,4.2119,4.2125,4.2135,4.2134,4.2142,4.2072,4.2055,4.2129,4.2129,4.2129,4.2129,4.2129,4.2129,4.1394,4.1471,4.1494,4.1592,4.1629,4.17,4.1733,4.1777,4.1817,4.1903,4.1956,4.1986,4.2035,4.2103,4.2162,4.2174,4.2198,4.2208,4.222,4.2154,4.2147,4.214,4.2124,4.2212,4.2212,4.2287,4.2287,4.2288]}]]